Find Starlink 2338

NORAD ID: 47793 Int'l Des: 2021-018 Owner: SPXS Country: US Constellation: starlink operational
LEOCIRCULARSTARLINK_TYPE

現在のビュー

3D地球を読み込み中...

About Starlink 2338

Starlink 2338 (NORAD 47793) is a starlink constellation satellite (v1.0) launched Mar 11, 2021 by SPXS of US. It operates in LEO, CIRCULAR, STARLINK_TYPE orbit with a mass of 260.00 kg.

次回通過

Passes for default location (London). Set your location on the main map for personalized predictions.

高度履歴

Loading altitude history...

軌道要素

1 47793U 21018G 26265.37969645 .00001306 00000-0 53868-4 0 9996
2 47793 53.1611 43.7785 0001054 92.0569 268.0553 15.31687308306891
Epoch: Sep 22, 2026 • Age: 16 hours

現在のステータス

高度 475.4 km
遠地点 / 近地点 N/A
速度 7.63 km/s
衛星直下点 47.72°N, 77.83°E
打ち上げ日 Mar 11, 2021
運用期間 5.5 years
タイプ internet

技術仕様

分類 Payload
質量 260.00 kg
乾燥質量 248.00 kg
長さ 0.20 m
スパン 9.00 m
形状 ? Box + pan
製造者 SPXS
バスタイプ Starlink
フェーズステータス In Orbit
所有者/国 SPXS/US

Most Searched